BEIDOU-3 M8

Last updated on Wed May 15 2019 03:07:46 GMT+0000 (Coordinated Universal Time)

1 43246U 18029B 19134.36409569 -.00000101 00000-0 10000-3 0 9996 2 43246 55.2015 29.1542 0005521 331.4134 208.5140 1.86233045 7632

Satellite not in orbit

BEIDOU-3 M8